Puebla, Mexico

10:37 PM CDT on August 31, 2016 (GMT -0500)
Hermanos Serdan International

Weather History for MMPB - February, 2013

Change the Weather History Date:

Sunday, February 17, 2013

  Actual Average Record
Temperature  
Mean Temperature 56 °F -  
Max Temperature 74 °F 68 °F 81 °F (2014)
Min Temperature 39 °F 42 °F 37 °F (1998)
Degree Days  
Heating Degree Days 8    
Growing Degree Days 6 (Base 50)    
Moisture  
Dew Point 37 °F    
Average Humidity 49    
Maximum Humidity 90    
Minimum Humidity 17    
Precipitation  
Precipitation 0.00 in - - ()
Sea Level Pressure  
Sea Level Pressure 30.24 in    
Wind  
Wind Speed 5 mph ()    
Max Wind Speed 16 mph    
Max Gust Speed -    
Visibility 7.6 miles    
Events      
Averages and records for this station are not official NWS values.
T = Trace of Precipitation, MM = Missing Value Source: Averaged Metar Reports

Daily Weather History Graph

Daily Weather History Graph

Search for Another Location

Airport or City:

Trip Planner

Search our weather history database for the weather conditions in past years. The results will help you decide how hot, cold, wet, or windy it might be!

Date:

Astronomy

Feb. 17, 2013 Rise Set
Actual Time 7:00 AM CST 6:34 PM CST
Civil Twilight 6:38 AM CST 6:56 PM CST
Nautical Twilight 6:12 AM CST 7:22 PM CST
Astronomical Twilight 5:46 AM CST 7:48 PM CST
Moon 11:58 AM CST (2/17) 12:29 AM CST (2/17)
Length of Visible Light 12h 18m
Length of Day
11h 34m
Waxing Crescent, 49% of the Moon is Illuminated
Feb 17
Waxing Crescent
Feb 17
First Quarter
Feb 25
Full
Mar 4
Last Quarter
Mar 11
New

Hourly Weather History & Observations

Time (CST) Temp. Windchill Dew Point Humidity Pressure Visibility Wind Dir Wind Speed Gust Speed Precip Events Conditions
5:48 AM 35.6 °F 30.7 °F 32.0 °F 87% 30.37 in 10.0 mi NNW 5.8 mph - N/A   Clear
5:50 AM 40 °F - 38 °F 90% 30.14 in 3 mi NNE 4.5 mph - -  
6:40 AM 35.6 °F 30.7 °F 32.0 °F 87% 30.39 in 10.0 mi NNW 5.8 mph - N/A   Clear
7:41 AM 39.2 °F 35.0 °F 33.8 °F 81% 30.40 in 8.0 mi NNW 5.8 mph - N/A   Clear
8:44 AM 44.6 °F 40.7 °F 37.4 °F 76% 30.42 in 8.0 mi North 6.9 mph - N/A   Clear
8:50 AM 48 °F - 38 °F 60% 30.22 in 3 mi WNW 2.2 mph - -   Haze
9:42 AM 51.8 °F - 37.4 °F 58% 30.43 in 8.0 mi North 4.6 mph - N/A   Clear
10:45 AM 57.2 °F - 37.4 °F 48% 30.41 in 8.0 mi Calm Calm - N/A   Clear
11:41 AM 60.8 °F - 39.2 °F 45% 30.38 in 8.0 mi ENE 4.6 mph - N/A   Clear
11:50 AM 64 °F - 37 °F 25% 30.15 in 3 mi SSW 2.2 mph - -   Haze
12:45 PM 66.2 °F - 37.4 °F 35% 30.34 in 8.0 mi SSE 8.1 mph - N/A   Partly Cloudy
1:43 PM 68.0 °F - 37.4 °F 33% 30.30 in 8.0 mi South 4.6 mph - N/A   Partly Cloudy
2:40 PM 72 °F - 37 °F 17% 29.93 in 6 mi South 4.5 mph - -   Haze
2:43 PM 69.8 °F - 37.4 °F 31% 30.27 in 8.0 mi SSW 11.5 mph - N/A   Partly Cloudy
3:47 PM 69.8 °F - 37.4 °F 31% 30.25 in 10.0 mi South 11.5 mph - N/A   Partly Cloudy
4:44 PM 69.8 °F - 35.6 °F 28% 30.24 in 10.0 mi SSW 16.1 mph - N/A   Partly Cloudy
5:40 PM 69 °F - 36 °F 19% 29.79 in 6 mi SSE 4.5 mph - -   Haze
5:41 PM 66.2 °F - 37.4 °F 35% 30.25 in 10.0 mi SSW 10.4 mph - N/A   Partly Cloudy
6:40 PM 59.0 °F - 39.2 °F 48% 30.25 in 10.0 mi South 10.4 mph - N/A   Partly Cloudy
7:45 PM 57.2 °F - 39.2 °F 51% 30.29 in 10.0 mi SSE 9.2 mph - N/A   Partly Cloudy
8:47 PM 55.4 °F - 37.4 °F 51% 30.33 in 10.0 mi NNE 4.6 mph - N/A   Partly Cloudy
8:50 PM 60 °F - 33 °F 25% 29.81 in 3 mi Calm Calm - -  
9:40 PM 53.6 °F - 39.2 °F 58% 30.34 in 10.0 mi WSW 4.6 mph - N/A   Partly Cloudy
10:47 PM 51.8 °F - 37.4 °F 58% 30.36 in 10.0 mi WNW 3.5 mph - N/A   Clear
11:50 PM 54 °F - 38 °F 43% 29.86 in 3 mi NE 2.2 mph - -